User: anonymous   Login
Location: Unspecified
(0.0000°N, 0.0000°E)
Time: 07:32:23
(UTC+02:00)
Language:

ARIANE 5 R/B - Orbit

View from above orbital plane
View from above orbital plane
View from above satellite
View from above satellite

Ground track
Ground track

The orbit data is extracted from the following two-line orbital elements,

1 28379U 04027B   17117.81646505 -.00000218 +00000-0 -14073-2 0  9994
2 28379 007.2290 345.4940 7291627 039.4418 127.9755 02.07931533097075
Epoch (UTC): 27 April 2017 19:35:42
Eccentricity: 0.7291627
inclination: 7.2290°
perigee height: 644 km
apogee height: 38457 km
right ascension of ascending node: 345.4940°
argument of perigee: 39.4418°
revolutions per day: 2.07931533
mean anomaly at epoch: 127.9755°
orbit number at epoch: 9707

The dashed part of the orbit path shows where the satellite is in the earth's shadow,  

DLR